Theta_e
310 317 316 314 314 311 316 319 323 326 330 328 326 325 326 323 325 321 323 322 319 317 315 313 306 307 310 311 313 315 316 321 323 327 331 334 334 334 333 335 334 333 335 335 332 332 331 334 333
312 316 315 309 309 314 314 318 327 327 326 322 323 323 323 325 324 322 321 320 319 316 313 311 305 305 306 308 312 313 314 318 321 322 326 331 332 334 333 334 334 333 335 336 333 332 332 333 332
316 317 311 309 308 309 314 317 324 326 324 325 324 321 320 323 321 322 323 320 318 315 313 309 304 303 303 304 309 311 311 314 318 320 321 325 329 331 332 332 332 331 333 335 335 334 333 334 331
317 312 307 308 312 311 314 317 322 324 324 324 321 321 319 321 321 322 321 319 316 313 311 308 304 303 303 302 303 303 305 311 315 317 319 320 321 327 329 331 331 330 333 334 335 335 333 333 332
316 308 312 312 313 314 314 315 317 322 322 323 318 317 320 319 320 320 318 318 315 311 310 307 305 304 303 303 303 302 302 304 306 311 316 317 319 322 326 329 331 330 330 332 333 332 332 334 332
312 307 311 312 313 317 315 315 316 317 316 315 317 316 318 319 318 317 317 316 315 311 310 307 306 305 305 304 303 302 301 301 302 305 309 312 311 314 320 326 328 328 329 330 330 330 330 332 333
314 311 312 313 312 314 317 315 316 316 316 316 314 314 318 317 318 315 315 315 315 313 310 308 307 306 305 304 304 303 303 301 303 306 307 308 312 318 321 322 323 325 327 327 328 328 330 330 329
309 308 312 310 311 316 315 315 315 315 315 314 313 313 314 316 314 314 314 315 314 313 311 308 307 307 306 305 303 303 303 302 301 301 302 303 312 316 318 319 322 324 325 326 327 327 330 330 325
311 307 309 313 314 316 314 315 314 313 314 314 313 312 314 315 314 313 314 315 314 313 311 309 308 307 306 305 304 304 303 302 301 300 299 302 306 314 314 317 318 322 325 325 326 328 329 327 324
310 309 313 312 311 311 310 313 312 312 311 311 312 311 314 314 313 312 313 314 314 313 312 310 308 307 306 305 305 304 303 302 302 300 301 301 301 312 311 315 318 319 323 324 324 328 327 324 322
311 309 312 311 311 311 310 310 310 311 309 307 308 309 309 310 311 311 312 313 312 312 310 310 309 308 306 305 304 304 303 302 301 301 301 301 302 306 310 314 317 319 322 324 324 325 324 322 321
309 309 311 311 310 310 311 308 307 307 308 307 306 308 307 308 308 309 310 311 311 311 310 309 309 308 307 305 304 303 303 302 301 301 301 303 303 306 309 312 315 318 321 323 324 323 321 320 319
310 309 310 310 309 309 308 307 306 305 304 303 306 308 307 308 308 310 310 311 311 310 309 309 309 308 307 305 304 303 302 301 301 301 301 304 304 306 308 311 313 317 320 320 323 323 322 320 319
310 309 308 308 309 308 308 307 307 305 305 303 304 307 306 307 307 309 310 310 310 310 309 309 309 308 307 305 303 302 301 301 300 300 302 304 304 305 308 310 313 317 318 320 322 322 321 320 320
309 308 307 307 308 308 307 307 307 305 308 307 306 305 305 305 308 308 310 310 310 309 308 307 308 307 305 303 302 301 300 300 300 301 304 305 305 305 308 310 312 316 318 319 321 322 321 319 320
309 309 309 310 308 309 307 307 308 307 304 306 304 303 304 305 305 307 309 309 309 307 306 306 305 303 302 301 300 300 299 302 303 303 303 304 305 306 307 309 312 314 316 318 320 320 319 319 320
310 308 311 312 309 309 307 305 307 306 304 304 303 302 303 303 304 308 308 308 307 306 305 304 303 302 301 300 300 300 302 303 303 303 303 303 303 305 306 309 312 313 314 318 320 319 320 319 318
314 312 309 309 309 307 306 306 306 306 304 303 302 302 301 303 304 305 306 306 305 305 304 303 301 300 300 300 299 300 302 302 302 302 302 303 304 305 307 309 312 312 314 318 319 318 319 318 316
309 308 307 306 307 306 305 304 307 305 305 303 302 303 302 302 302 304 304 305 304 303 302 301 300 300 300 299 299 300 301 300 301 301 302 302 304 305 307 309 311 313 315 318 318 317 317 316 316
309 308 307 308 306 307 306 308 307 306 306 307 306 306 304 302 302 302 304 304 304 303 302 301 300 300 299 298 299 300 301 301 302 302 302 303 304 304 307 309 311 313 315 318 318 315 317 315 315
308 308 309 308 308 308 306 308 307 306 306 306 306 305 301 302 302 301 301 303 303 302 301 300 300 299 298 298 300 300 300 301 302 302 303 303 303 305 307 309 310 312 314 317 317 317 317 316 314
308 307 308 309 307 309 308 310 307 306 305 305 305 304 302 302 302 301 301 302 302 302 300 300 299 297 297 298 300 300 300 300 301 302 303 303 304 305 306 309 310 311 313 315 317 317 317 316 313
307 307 308 308 309 309 310 308 307 305 305 305 303 302 301 301 301 301 300 302 302 301 300 299 298 297 297 299 299 300 299 300 301 302 303 304 304 306 307 308 310 310 312 314 316 317 316 315 315
307 308 309 309 309 308 311 305 306 304 304 305 302 302 301 301 301 300 301 301 300 300 299 298 297 296 298 299 299 299 299 299 300 301 302 302 303 304 306 308 309 310 310 313 315 316 317 314 316
308 309 308 311 309 313 307 304 305 307 305 303 301 301 301 301 300 300 299 299 300 299 299 298 296 296 299 300 299 299 299 299 299 300 300 301 302 303 304 306 308 309 309 312 315 316 317 314 316
306 308 311 312 316 317 303 308 312 305 303 301 300 300 300 300 300 299 299 299 299 299 298 296 295 297 299 299 299 298 299 299 299 299 299 300 300 302 303 306 307 308 310 312 314 317 317 315 315
306 306 308 308 300 309 311 310 309 304 305 302 301 300 300 300 300 300 299 300 299 299 298 296 296 298 299 299 298 298 298 298 298 299 299 299 300 302 304 306 307 308 310 311 314 316 317 316 315
303 303 306 306 309 313 315 316 314 305 303 302 301 300 300 300 299 299 297 299 299 298 297 295 297 299 298 298 298 298 298 298 298 299 299 301 303 304 305 306 307 308 310 311 313 317 316 316 316
303 303 304 307 312 315 313 316 314 311 305 302 301 301 300 300 299 298 297 298 298 297 295 295 298 299 298 298 297 297 297 297 299 300 301 302 304 305 307 308 309 310 311 312 313 316 317 317 317
303 305 305 312 310 308 311 314 310 305 304 302 301 301 301 299 298 298 297 297 296 296 294 295 298 299 298 297 297 296 296 298 299 301 302 303 305 305 306 307 309 310 311 314 316 317 317 318 317
Wind_Speed
10 5 9 3 4 4 3 4 2 3 4 3 2 5 4 1 2 3 12 11 11 7 3 2 5 6 6 7 7 8 8 9 9 8 7 10 8 8 9 10 10 12 13 16 14 13 13 13 12
8 4 1 2 4 2 5 3 5 4 4 6 5 3 3 1 4 7 10 11 9 8 5 3 5 6 6 7 7 8 8 9 10 9 7 9 10 9 8 9 12 13 12 13 14 14 14 15 15
8 5 3 4 3 4 4 3 7 3 5 2 3 2 1 4 5 14 7 14 10 8 4 4 5 6 7 8 8 9 10 9 10 10 10 10 11 10 9 9 11 12 14 13 14 14 15 17 19
5 5 4 4 5 6 6 5 8 7 3 4 2 1 3 3 5 12 16 11 9 5 3 4 4 5 6 7 8 10 10 10 10 10 10 10 10 9 9 9 9 10 11 13 15 16 18 20 22
2 3 1 2 6 3 2 7 6 5 6 5 5 2 3 4 16 16 13 11 9 4 4 5 4 5 6 8 9 10 11 11 11 11 11 11 11 11 10 10 8 8 10 11 14 17 18 19 23
3 3 2 3 4 2 2 3 4 2 5 4 4 1 6 15 14 12 11 8 9 5 4 5 5 6 7 8 9 11 13 13 12 12 11 11 10 10 10 10 10 10 9 11 13 14 15 15 17
3 3 4 4 5 2 1 3 3 2 3 4 5 4 4 6 11 15 11 9 7 5 5 6 6 7 7 8 11 12 14 14 13 12 12 11 10 8 7 9 10 12 14 13 13 11 9 8 13
3 3 3 4 3 1 1 1 3 2 2 1 5 5 4 7 15 14 11 8 5 5 7 7 5 6 7 7 7 11 12 12 14 14 12 11 8 8 6 9 11 11 12 12 12 10 15 16 5
3 3 3 3 3 2 2 1 2 1 3 2 5 5 9 22 16 12 9 9 9 10 10 8 7 5 5 4 2 9 9 12 13 15 14 13 10 9 7 8 9 12 12 9 6 8 16 13 15
4 3 4 1 2 2 3 2 4 2 3 4 3 4 22 23 17 12 10 11 12 13 12 11 8 6 6 3 6 7 10 12 14 15 11 14 12 8 8 9 9 11 12 9 5 12 22 21 26
3 5 1 1 2 1 2 4 3 3 6 8 7 8 8 10 15 13 13 12 11 7 7 9 8 7 7 8 8 8 11 12 14 13 14 13 13 11 8 8 9 8 9 9 8 24 25 29 33
1 5 2 2 2 2 2 4 7 7 8 5 7 3 8 8 8 13 14 13 9 5 4 4 8 8 7 9 8 9 12 13 14 14 12 11 11 10 8 10 10 11 9 12 16 22 30 32 31
3 3 1 2 4 4 4 6 6 10 11 9 6 7 10 9 11 13 13 12 9 6 5 5 6 7 7 7 9 9 11 12 12 14 12 9 11 10 8 9 11 10 7 14 20 27 30 25 24
2 5 7 5 4 3 4 4 3 8 4 9 8 9 9 9 11 9 10 11 9 7 6 6 6 7 7 8 7 9 11 11 12 13 11 9 10 11 8 9 9 8 7 9 25 29 30 27 31
3 6 6 5 4 3 0 5 8 9 1 4 5 8 8 9 13 13 13 11 9 8 7 4 5 5 6 5 7 10 10 10 12 11 9 12 9 6 7 8 8 8 6 8 20 30 28 33 31
2 1 4 1 5 1 0 8 5 4 8 9 8 8 7 10 13 14 10 10 10 7 3 4 4 3 3 5 8 10 9 9 11 9 9 8 11 6 7 7 8 8 7 10 21 26 29 32 31
2 3 4 3 5 1 4 8 5 5 7 9 9 9 9 8 9 14 11 14 9 5 5 3 2 1 4 7 8 7 7 7 6 9 7 10 5 5 7 8 7 8 7 11 22 25 31 30 31
3 3 4 4 2 2 4 15 15 11 9 12 9 8 8 8 10 11 17 14 9 6 5 4 1 1 3 5 5 5 5 6 6 7 6 6 4 5 8 6 8 7 9 16 16 12 20 30 33
2 2 4 5 2 2 7 9 19 8 7 7 7 7 7 7 5 20 17 15 11 8 7 5 4 2 4 6 6 6 8 7 6 6 4 3 4 5 8 5 7 7 6 15 17 17 11 31 40
2 1 5 1 2 2 6 15 12 3 2 3 3 2 5 8 6 9 15 12 9 9 7 8 3 1 3 4 5 4 6 4 5 5 5 4 4 6 8 4 6 7 5 6 21 19 17 24 33
3 4 2 3 7 3 6 7 2 1 3 2 1 0 7 10 9 7 10 13 12 12 10 8 4 1 2 5 4 3 3 2 3 8 5 7 5 4 6 2 3 5 3 3 16 22 21 15 21
2 1 2 2 4 3 3 5 6 3 3 4 5 4 7 8 6 6 8 11 13 12 11 6 1 1 2 3 4 4 5 4 4 8 8 7 6 6 4 2 1 2 3 2 9 20 25 21 20
4 2 3 2 0 3 2 3 7 3 5 7 8 7 8 8 8 8 8 13 14 10 7 5 3 2 2 3 5 4 3 3 6 7 9 6 8 5 3 1 1 3 3 3 6 18 23 26 29
5 3 4 4 2 2 3 5 6 4 5 4 5 7 8 8 6 7 12 15 13 10 8 6 4 3 2 3 3 2 1 2 4 8 7 7 7 5 3 2 2 3 6 5 4 14 23 30 21
1 4 3 4 3 5 2 2 9 5 4 7 10 9 8 8 8 8 8 11 13 11 10 7 5 5 2 3 2 0 0 1 3 4 5 7 7 5 4 5 3 4 3 8 2 15 21 33 23
6 5 5 6 3 3 3 5 5 1 3 5 8 8 7 8 7 8 8 13 15 13 12 9 7 6 4 3 1 1 2 1 1 3 5 5 6 7 5 5 4 4 4 9 6 10 18 31 30
5 4 2 7 2 3 4 7 6 1 1 5 7 8 9 8 8 8 8 16 18 16 13 10 9 7 5 2 1 1 3 2 3 5 6 6 6 6 5 6 7 6 5 11 8 5 22 26 33
2 2 3 3 3 3 4 5 6 6 9 8 8 9 9 8 7 7 7 15 15 14 13 10 9 9 4 2 2 1 2 3 4 5 7 6 6 7 8 8 7 5 7 11 8 7 20 23 24
2 2 3 2 4 5 2 6 6 8 10 12 10 10 9 8 8 8 7 16 18 16 14 12 11 9 5 4 2 1 3 4 5 5 6 8 7 7 6 7 4 7 12 14 13 12 13 20 22
2 4 6 4 5 2 3 6 3 7 6 9 10 10 7 7 8 8 10 18 18 16 15 13 11 10 7 6 2 2 2 3 4 6 8 7 6 6 4 5 9 14 17 13 11 12 12 17 19
Wind_Direction
320 316 322 349 57 64 263 265 145 91 69 103 57 80 143 126 234 209 140 156 141 140 219 312 356 18 23 17 10 6 5 6 4 357 343 357 334 305 282 274 259 247 241 237 236 229 218 203 206
343 11 72 78 92 53 275 297 90 40 109 88 74 40 16 129 108 126 131 161 154 169 216 299 357 8 13 15 14 9 8 6 5 356 334 346 349 330 297 279 269 259 249 247 241 238 220 206 210
319 309 86 113 149 187 194 122 134 116 104 99 99 61 204 142 89 142 160 161 159 188 254 315 356 5 6 8 13 10 10 4 0 358 347 334 335 342 318 291 268 262 258 251 248 236 223 214 214
321 15 13 97 246 261 143 135 144 137 86 85 103 203 71 61 131 159 149 150 164 184 262 320 356 0 3 1 1 1 4 1 358 352 348 338 327 304 325 312 300 272 261 260 257 251 233 219 215
245 66 69 230 260 232 142 147 122 161 167 172 140 201 133 88 126 140 149 159 156 161 283 316 340 350 359 2 2 1 359 355 354 351 345 337 333 324 307 313 308 291 259 256 257 252 242 233 218
6 95 59 250 265 148 70 125 104 109 162 166 150 210 177 157 146 149 156 165 186 205 275 309 324 340 349 359 2 5 360 356 352 350 345 338 335 327 311 309 296 291 298 287 263 258 246 241 240
129 90 228 241 243 158 94 10 98 185 256 198 165 158 167 170 166 159 159 170 196 242 279 303 311 332 343 354 0 1 358 2 358 354 348 343 348 340 332 317 298 296 283 289 286 263 227 148 359
110 100 278 260 224 182 191 90 139 102 241 178 156 204 195 192 158 157 164 178 202 238 282 298 291 311 324 351 358 348 348 357 351 347 343 334 338 326 309 316 308 284 273 282 285 251 213 214 251
34 57 266 282 6 139 294 109 321 201 147 222 207 161 152 151 162 167 177 207 227 234 247 249 234 260 278 1 323 326 343 340 343 344 338 333 328 328 300 306 279 278 275 277 286 219 187 181 171
101 134 233 358 24 52 332 254 204 197 254 259 223 127 155 161 169 178 197 215 232 243 234 219 218 235 271 280 297 326 328 334 337 340 339 330 328 324 308 307 307 271 278 249 238 177 161 150 140
182 203 196 102 135 55 284 315 270 210 257 229 227 212 183 167 177 190 211 220 232 237 171 196 220 242 268 293 311 313 318 324 331 334 328 331 332 321 308 295 297 282 268 233 194 156 151 147 146
235 275 191 163 111 15 254 312 297 219 228 192 180 143 162 172 190 200 212 220 222 186 171 213 223 232 273 296 309 307 314 325 332 327 329 328 325 322 317 294 302 307 259 219 173 158 155 151 149
190 277 281 260 167 233 269 260 244 260 253 261 212 161 163 188 203 212 218 215 188 208 247 240 235 249 265 278 299 305 317 327 324 322 324 319 317 316 311 301 296 316 273 223 184 169 166 167 173
281 289 276 269 213 240 240 250 21 265 261 236 219 202 194 186 203 211 205 201 201 213 199 194 219 238 263 284 292 306 318 325 317 324 327 322 313 305 296 285 279 313 270 234 201 175 176 177 159
304 314 307 228 205 222 65 284 222 234 241 205 222 204 217 217 215 215 217 207 195 161 165 187 216 236 279 280 298 312 323 316 318 328 341 334 311 299 302 283 298 326 286 216 188 174 175 161 159
287 219 341 350 139 242 26 275 290 228 178 225 230 240 220 217 217 218 201 189 163 170 191 179 208 258 291 307 319 331 338 342 344 342 333 327 315 285 290 293 314 313 338 199 189 176 163 161 155
308 254 228 286 190 124 201 273 264 217 191 237 236 227 216 215 216 208 199 164 154 159 158 163 170 311 318 323 329 343 339 329 344 336 343 330 333 324 293 307 325 310 281 201 173 176 175 163 153
201 243 302 281 209 211 246 261 268 263 229 231 233 248 216 206 216 160 141 139 139 140 145 152 144 310 323 319 321 330 314 319 350 328 324 335 322 315 298 313 346 320 283 187 172 163 169 144 140
123 223 264 272 221 265 248 275 281 264 267 225 230 243 229 197 142 138 134 135 134 148 152 162 158 191 307 327 345 355 358 7 9 352 0 335 301 309 316 330 342 334 316 177 166 131 129 128 133
165 265 280 284 162 261 300 289 296 298 97 141 115 327 157 125 138 132 140 145 165 166 161 156 163 176 326 346 2 359 348 6 24 22 6 352 328 309 324 343 345 2 336 185 160 156 143 126 138
217 189 221 240 323 268 301 295 323 344 92 87 126 56 130 155 160 165 154 170 172 164 165 152 160 329 340 351 20 5 15 41 45 10 2 334 319 302 317 320 352 1 348 219 163 165 154 140 144
234 163 122 43 36 257 16 283 300 213 218 207 214 158 163 178 164 160 168 174 167 150 143 144 120 79 24 11 36 34 45 24 2 348 353 353 347 330 327 302 231 335 321 359 183 174 180 183 156
212 96 105 99 2 4 313 77 270 170 230 233 211 207 210 184 157 160 165 155 147 146 138 129 105 100 38 37 51 53 54 5 351 21 5 28 347 357 343 348 340 317 291 253 187 177 171 167 157
146 93 52 57 76 4 243 127 279 207 206 196 195 196 195 194 161 125 138 145 141 140 139 137 129 125 77 84 78 64 73 5 1 11 14 4 357 359 6 342 335 304 257 222 221 205 172 159 149
94 82 344 347 9 219 10 88 247 263 254 186 178 190 195 171 153 153 163 160 157 158 150 146 140 142 139 117 102 102 233 37 31 1 347 325 333 340 351 326 333 334 256 216 178 204 177 165 152
183 170 161 202 205 248 16 239 250 255 73 153 160 177 179 179 182 184 190 174 170 165 156 153 151 150 149 160 114 261 340 339 24 349 342 321 324 322 322 301 311 302 269 208 206 163 188 165 167
198 194 173 103 25 51 216 278 298 141 199 137 157 158 187 191 185 179 166 168 161 160 156 158 156 160 157 220 91 35 340 334 5 355 347 336 331 313 311 288 285 280 239 207 199 181 178 165 181
169 310 86 2 146 235 287 277 239 212 225 216 206 194 201 199 186 177 161 161 162 157 151 156 164 164 159 128 107 273 296 358 6 5 349 343 328 306 301 278 270 254 202 182 176 164 179 176 174
154 252 221 145 163 173 181 255 213 207 208 204 204 205 199 188 180 178 162 161 159 157 155 158 168 160 145 122 216 322 346 21 32 7 347 342 323 301 272 259 235 191 181 174 179 171 168 169 177
290 216 179 144 230 240 152 272 213 186 215 187 201 199 187 177 182 174 157 157 159 160 159 162 176 166 158 141 178 56 12 36 20 11 355 352 313 314 270 205 185 175 174 173 163 199 193 175 183